Weather History for Raton, NM

Change the Weather History Date:

Wednesday, November 20, 2013

  Actual Average (KTAD) Record (KTAD)
Temperature  
Mean Temperature 42 °F 38 °F  
Max Temperature 55 °F 54 °F 72 °F (2003)
Min Temperature 30 °F 24 °F -5 °F (1975)
Degree Days  
Heating Degree Days 22 27  
Month to date heating degree days 443  
Since 1 July heating degree days 944  
Cooling Degree Days 0 0  
Month to date cooling degree days 0  
Year to date cooling degree days 719  
Moisture  
Dew Point 24 °F    
Average Humidity 49    
Maximum Humidity 67    
Minimum Humidity 27    
Precipitation  
Precipitation 0.00 in 0.02 in 0.60 in (1997)
Month to date precipitation 0.50  
Year to date precipitation 13.10  
Sea Level Pressure  
Sea Level Pressure 29.78 in    
Wind  
Wind Speed 8 mph (NNE)    
Max Wind Speed 18 mph    
Max Gust Speed -    
Visibility 10 miles    
Events      
T = Trace of Precipitation, MM = Missing Value Source: NWS Daily Summary

Daily Weather History Graph

Daily Weather History Graph

Search for Another Location

Airport:

Trip Planner

Search our weather history database for the weather conditions in past years. The results will help you decide how hot, cold, wet, or windy it might be!

Date:

Astronomy

Nov. 20, 2013 Rise Set
Actual Time 6:41 AM MST 4:45 PM MST
Civil Twilight 6:13 AM MST 5:13 PM MST
Nautical Twilight 5:42 AM MST 5:45 PM MST
Astronomical Twilight 5:11 AM MST 6:15 PM MST
Moon 7:30 PM MST (11/20) 9:08 AM MST (11/20)
Length of Visible Light 11h 00m
Length of Day
10h 04m
Waning Gibbous, 91% of the Moon is Illuminated
Nov 20
Waning Gibbous
Nov 25
Last Quarter
Dec 2
New
Dec 9
First Quarter
Dec 17
Full

Hourly Weather History & Observations

Time (MST) Temp. Windchill Dew Point Humidity Pressure Visibility Wind Dir Wind Speed Gust Speed Precip Events Conditions
12:53 AM 36.0 °F 28.5 °F 21.0 °F 55% 29.73 in 10.0 mi NNE 10.4 mph - N/A   Clear
1:53 AM 37.9 °F 32.7 °F 21.9 °F 53% 29.75 in 10.0 mi North 6.9 mph - N/A   Clear
2:53 AM 36.0 °F 29.0 °F 21.0 °F 55% 29.73 in 10.0 mi NNW 9.2 mph - N/A   Clear
3:53 AM 34.0 °F 28.0 °F 21.0 °F 59% 29.75 in 10.0 mi North 6.9 mph - N/A   Clear
4:53 AM 32.0 °F 26.4 °F 21.0 °F 64% 29.78 in 10.0 mi East 5.8 mph - N/A   Clear
5:53 AM 30.9 °F 24.3 °F 21.0 °F 67% 29.82 in 10.0 mi NNE 6.9 mph - N/A   Clear
6:53 AM 35.1 °F 27.9 °F 21.9 °F 59% 29.81 in 10.0 mi NNE 9.2 mph - N/A   Clear
7:53 AM 37.9 °F 32.7 °F 23.0 °F 55% 29.81 in 10.0 mi NNE 6.9 mph - N/A   Clear
8:53 AM 43.0 °F 40.3 °F 24.1 °F 47% 29.83 in 10.0 mi NE 4.6 mph - N/A   Clear
9:53 AM 44.1 °F 41.5 °F 26.1 °F 49% 29.82 in 10.0 mi NNE 4.6 mph - N/A   Clear
10:53 AM 48.9 °F - 25.0 °F 39% 29.82 in 10.0 mi East 5.8 mph - N/A   Clear
11:53 AM 50.0 °F - 24.1 °F 36% 29.78 in 10.0 mi South 3.5 mph - N/A   Clear
12:53 PM 54.0 °F - 23.0 °F 30% 29.74 in 10.0 mi South 6.9 mph - N/A   Clear
1:53 PM 53.1 °F - 24.1 °F 32% 29.72 in 10.0 mi South 10.4 mph - N/A   Clear
2:53 PM 55.0 °F - 21.0 °F 27% 29.71 in 10.0 mi South 18.4 mph - N/A   Clear
3:53 PM 50.0 °F - 23.0 °F 35% 29.76 in 10.0 mi South 15.0 mph - N/A   Clear
4:53 PM 48.0 °F - 23.0 °F 37% 29.77 in 10.0 mi SSE 11.5 mph - N/A   Clear
5:53 PM 46.0 °F 43.1 °F 24.1 °F 42% 29.78 in 10.0 mi WSW 5.8 mph - N/A   Clear
6:53 PM 46.0 °F 42.5 °F 26.1 °F 46% 29.78 in 10.0 mi SW 6.9 mph - N/A   Overcast
7:53 PM 45.0 °F 43.5 °F 26.1 °F 48% 29.79 in 10.0 mi West 3.5 mph - N/A   Overcast
8:53 PM 44.1 °F - 27.0 °F 51% 29.77 in 10.0 mi Calm Calm - N/A   Overcast
9:53 PM 39.9 °F 36.7 °F 27.0 °F 60% 29.79 in 10.0 mi North 4.6 mph - N/A   Overcast
10:53 PM 36.0 °F 31.1 °F 26.1 °F 67% 29.79 in 10.0 mi NNW 5.8 mph - N/A   Clear
11:53 PM 36.0 °F 33.3 °F 26.1 °F 67% 29.79 in 10.0 mi NNW 3.5 mph - N/A   Mostly Cloudy